EW7309 Weather Reports


time (UTC)temp
F
wind
direction
speed
knots
gust
knots
rain 1hr
in
rain 24hr
in
rain mn
in
humidity
%
barometer
mb
20260508162038 60 217 1.7 11.3 0.00 0.00 0.00 27 1019.5
20260508161538 59 240 2.6 11.3 0.00 0.00 0.00 27 1019.6
20260508161039 58 292 2.6 11.3 0.00 0.00 0.00 28 1019.6
20260508160533 58 271 4.3 11.3 0.00 0.00 0.00 29 1019.6
20260508160034 58 290 5.2 13.0 0.00 0.00 0.00 29 1019.8
20260508155531 58 287 3.5 13.0 0.00 0.00 0.00 28 1019.8
20260508155033 58 290 2.6 12.2 0.00 0.00 0.00 28 1019.8
20260508154535 58 248 2.6 13.9 0.00 0.00 0.00 28 1019.8
20260508154032 58 272 2.6 13.9 0.00 0.00 0.00 28 1019.8
20260508153529 58 290 4.3 13.0 0.00 0.00 0.00 29 1019.8
20260508153030 57 252 4.3 13.0 0.00 0.00 0.00 30 1019.8
20260508152756 57 294 3.5 12.2 0.00 0.00 0.00 29 1019.9
20260508152030 57 269 3.5 12.2 0.00 0.00 0.00 31 1019.8
20260508151531 56 293 4.3 11.3 0.00 0.00 0.00 32 1019.8
20260508151026 55 261 4.3 12.2 0.00 0.00 0.00 32 1019.8
20260508150525 55 248 3.5 12.2 0.00 0.00 0.00 33 1019.8
20260508150027 54 260 1.7 13.0 0.00 0.00 0.00 34 1019.8
20260508145528 54 236 2.6 13.0 0.00 0.00 0.00 35 1019.8
20260508145523 53 243 3.5 13.0 0.00 0.00 0.00 35 1019.6
20260508144526 54 261 3.5 12.2 0.00 0.00 0.00 35 1019.6
20260508144027 54 252 5.2 12.2 0.00 0.00 0.00 35 1019.6
20260508143749 54 217 4.3 12.2 0.00 0.00 0.00 35 1019.5
20260508143022 54 219 3.5 12.2 0.00 0.00 0.00 34 1019.5
20260508142523 55 247 2.6 12.2 0.00 0.00 0.00 35 1019.5
20260508142023 55 237 1.7 9.6 0.00 0.00 0.00 35 1019.5
20260508141522 55 237 1.7 9.6 0.00 0.00 0.00 34 1019.5
20260508141021 55 239 0.9 11.3 0.00 0.00 0.00 34 1019.5
20260508140523 55 244 0.9 11.3 0.00 0.00 0.00 34 1019.5
20260508140023 55 254 0.0 6.1 0.00 0.00 0.00 34 1019.4
20260508135522 54 233 0.0 4.3 0.00 0.00 0.00 36 1019.4
20260508135242 53 267 0.0 4.3 0.00 0.00 0.00 38 1019.4
20260508134522 52 240 0.0 0.9 0.00 0.00 0.00 38 1019.4
20260508134023 51 234 0.0 0.9 0.00 0.00 0.00 41 1019.3
20260508133523 51 220 0.0 0.9 0.00 0.00 0.00 42 1019.3
20260508133255 50 223 0.0 0.9 0.00 0.00 0.00 42 1019.3
20260508132520 49 223 0.0 0.9 0.00 0.00 0.00 43 1019.1
20260508132021 49 208 0.0 1.7 0.00 0.00 0.00 44 1019.3
20260508131521 49 213 0.9 7.0 0.00 0.00 0.00 43 1019.1
20260508131021 49 218 0.9 7.0 0.00 0.00 0.00 43 1019.0
20260508130519 49 210 0.9 7.8 0.00 0.00 0.00 43 1019.0
20260508130017 49 214 0.0 7.8 0.00 0.00 0.00 44 1019.0
20260508125515 49 217 0.0 0.9 0.00 0.00 0.00 44 1019.0
20260508125235 48 215 0.0 0.9 0.00 0.00 0.00 44 1018.9
20260508124510 48 208 0.9 7.0 0.00 0.00 0.00 45 1018.9
20260508124221 48 214 0.9 7.0 0.00 0.00 0.00 45 1018.8
20260508123710 48 204 0.0 5.2 0.00 0.00 0.00 45 1018.8
20260508122945 48 205 0.0 5.2 0.00 0.00 0.00 45 1018.6
20260508122434 47 207 0.0 5.2 0.00 0.00 0.00 46 1018.6
20260508121928 47 222 0.0 5.2 0.00 0.00 0.00 46 1018.6
20260508121423 47 215 0.0 5.2 0.00 0.00 0.00 46 1018.5
20260508120908 47 209 0.0 6.1 0.00 0.00 0.00 46 1018.5
20260508120626 47 217 0.0 6.1 0.00 0.00 0.00 46 1018.5
20260508120120 47 219 0.0 4.3 0.00 0.00 0.00 46 1018.4
20260508115346 47 207 0.0 4.3 0.00 0.00 0.00 46 1018.4
20260508115112 47 206 0.9 7.0 0.00 0.00 0.00 46 1018.5
20260508114346 48 212 0.9 7.0 0.00 0.00 0.00 45 1018.4
20260508113846 48 215 0.0 5.2 0.00 0.00 0.00 45 1018.4
20260508113347 48 215 0.0 3.5 0.00 0.00 0.00 45 1018.4
20260508112847 48 209 0.0 6.1 0.00 0.00 0.00 45 1018.4
20260508112344 48 205 0.0 6.1 0.00 0.00 0.00 46 1018.4
20260508111842 48 207 0.9 7.8 0.00 0.00 0.00 46 1018.4
20260508111341 48 215 0.9 7.8 0.00 0.00 0.00 46 1018.4
20260508110844 47 212 0.0 7.0 0.00 0.00 0.00 46 1018.4
20260508110340 47 208 0.0 5.2 0.00 0.00 0.00 46 1018.5
20260508105838 47 211 0.0 1.7 0.00 0.00 0.00 46 1018.5
20260508105337 47 201 0.0 1.7 0.00 0.00 0.00 46 1018.5
20260508105058 47 203 0.0 4.3 0.00 0.00 0.00 46 1018.5
20260508104334 47 200 0.0 4.3 0.00 0.00 0.00 46 1018.5
20260508104056 47 207 0.0 0.0 0.00 0.00 0.00 46 1018.5
20260508103324 47 217 0.0 0.0 0.00 0.00 0.00 46 1018.4
20260508102818 47 217 0.0 0.0 0.00 0.00 0.00 46 1018.5
20260508102316 47 217 0.0 2.6 0.00 0.00 0.00 46 1018.5
20260508101815 47 221 0.0 2.6 0.00 0.00 0.00 46 1018.5
20260508101318 47 222 0.0 2.6 0.00 0.00 0.00 45 1018.5
20260508100816 48 207 0.0 1.7 0.00 0.00 0.00 45 1018.5
20260508100315 48 207 0.0 4.3 0.00 0.00 0.00 45 1018.5
20260508100037 48 207 0.0 4.3 0.00 0.00 0.00 44 1018.4
20260508095309 48 212 0.0 0.9 0.00 0.00 0.00 44 1018.4
20260508094811 48 213 0.0 0.9 0.00 0.00 0.00 44 1018.4
20260508094310 48 211 0.0 4.3 0.00 0.00 0.00 44 1018.3
20260508094032 48 215 0.9 6.1 0.00 0.00 0.00 45 1018.3
20260508093311 48 209 0.9 6.1 0.00 0.00 0.00 45 1018.3
20260508092811 47 207 0.0 0.0 0.00 0.00 0.00 45 1018.2
20260508092313 47 214 0.0 0.0 0.00 0.00 0.00 46 1018.2
20260508091804 47 215 0.0 0.0 0.00 0.00 0.00 46 1018.2
20260508091304 47 215 0.0 0.0 0.00 0.00 0.00 45 1018.2
20260508090802 48 215 0.0 1.7 0.00 0.00 0.00 45 1018.3
20260508090521 48 215 0.0 3.5 0.00 0.00 0.00 45 1018.3
20260508085759 47 214 0.0 3.5 0.00 0.00 0.00 45 1018.3
20260508085255 47 211 0.0 1.7 0.00 0.00 0.00 45 1018.2
20260508084756 47 212 0.0 2.6 0.00 0.00 0.00 45 1018.3
20260508084256 48 211 0.0 2.6 0.00 0.00 0.00 45 1018.3
20260508083754 48 213 0.0 0.0 0.00 0.00 0.00 44 1018.4
20260508083512 48 212 0.0 0.0 0.00 0.00 0.00 44 1018.3
20260508082752 48 213 0.0 0.0 0.00 0.00 0.00 44 1018.4
20260508082252 48 207 0.0 2.6 0.00 0.00 0.00 44 1018.4
20260508081750 48 212 0.0 2.6 0.00 0.00 0.00 44 1018.4
20260508081247 48 216 0.0 0.0 0.00 0.00 0.00 45 1018.4
20260508080745 47 212 0.0 0.0 0.00 0.00 0.00 45 1018.5
20260508080246 47 215 0.0 0.0 0.00 0.00 0.00 44 1018.6
20260508075739 47 216 0.0 0.0 0.00 0.00 0.00 44 1018.6
20260508075234 48 217 0.0 0.0 0.00 0.00 0.00 44 1018.6
20260508074720 48 217 0.0 0.0 0.00 0.00 0.00 43 1018.6
20260508074442 48 219 0.0 0.0 0.00 0.00 0.00 43 1018.8
20260508073707 48 219 0.0 0.0 0.00 0.00 0.00 43 1018.8
20260508073159 48 219 0.0 0.9 0.00 0.00 0.00 43 1018.8
20260508072652 48 221 0.0 0.9 0.00 0.00 0.00 43 1018.8
20260508072146 49 220 0.0 2.6 0.00 0.00 0.00 43 1018.8
20260508071632 49 220 0.0 2.6 0.00 0.00 0.00 42 1018.8
20260508071127 49 185 0.0 0.0 0.00 0.00 0.00 42 1018.6
20260508070620 49 215 0.0 0.0 0.00 0.00 0.00 42 1018.6
20260508070111 49 209 0.0 0.0 0.00 0.00 0.00 42 1018.5
20260508065611 49 210 0.0 0.0 0.00 0.00 0.00 41 1018.6
20260508065112 49 206 0.0 0.9 0.00 0.00 0.00 41 1018.5
20260508064832 50 207 0.0 6.1 0.00 0.00 0.00 41 1018.5
20260508064112 50 216 0.9 6.1 0.00 0.00 0.00 41 1018.5
20260508063611 50 213 0.9 5.2 0.00 0.00 0.00 40 1018.4
20260508063111 50 206 0.0 0.9 0.00 0.00 0.00 40 1018.4
20260508062611 50 213 0.0 0.0 0.00 0.00 0.00 40 1018.4
20260508062602 50 212 0.0 0.9 0.00 0.00 0.00 40 1018.4
20260508061601 50 211 0.0 0.9 0.00 0.00 0.00 40 1018.4
20260508061058 50 211 0.0 0.0 0.00 0.00 0.00 40 1018.5
20260508060559 50 209 0.0 0.9 0.00 0.00 0.00 39 1018.4
20260508060059 51 221 0.0 0.9 0.00 0.00 0.00 39 1018.5
20260508055558 51 196 0.0 0.9 0.00 0.00 0.00 39 1018.4
20260508055056 51 205 0.0 0.9 0.00 0.00 0.00 39 1018.4
20260508054557 51 202 0.0 6.1 0.00 0.00 0.00 38 1018.4
20260508054312 51 211 0.9 6.1 0.00 0.00 0.00 38 1018.4
20260508053557 51 200 0.0 6.1 0.00 0.00 0.00 38 1018.4
20260508053056 51 203 0.0 5.2 0.00 0.00 0.00 37 1018.4
20260508052557 51 210 0.0 5.2 0.00 0.00 0.00 37 1018.4
20260508052057 52 223 0.0 5.2 0.00 0.00 0.00 37 1018.4
20260508051557 52 215 0.0 7.0 0.00 0.00 0.00 37 1018.4
20260508051055 52 213 0.9 7.0 0.00 0.00 0.00 37 1018.4
20260508050554 51 205 0.0 5.2 0.00 0.00 0.00 37 1018.5
20260508050053 52 219 0.0 5.2 0.00 0.00 0.00 37 1018.5
20260508045555 52 204 0.0 5.2 0.00 0.00 0.00 36 1018.5
20260508045054 53 208 0.0 0.9 0.00 0.00 0.00 36 1018.5
20260508044551 53 208 0.0 0.9 0.00 0.00 0.00 35 1018.6
20260508044052 53 205 0.0 3.5 0.00 0.00 0.00 35 1018.5
20260508043550 53 211 0.0 3.5 0.00 0.00 0.00 35 1018.6
20260508043051 54 219 0.0 0.9 0.00 0.00 0.00 35 1018.6
20260508042547 54 215 0.0 0.9 0.00 0.00 0.00 35 1018.8
20260508042047 54 209 0.0 1.7 0.00 0.00 0.00 34 1018.8
20260508041546 54 219 0.0 1.7 0.00 0.00 0.00 34 1018.8
20260508041046 54 217 0.0 0.9 0.00 0.00 0.00 34 1018.6
20260508041039 54 215 0.0 0.9 0.00 0.00 0.00 34 1018.6
20260508040047 54 215 0.0 0.9 0.00 0.00 0.00 34 1018.5
20260508035545 55 217 0.0 0.9 0.00 0.00 0.00 34 1018.5
20260508035052 55 225 0.0 0.9 0.00 0.00 0.00 34 1018.4
20260508034542 55 249 0.0 0.9 0.00 0.00 0.00 33 1018.5
20260508034306 55 222 0.0 0.9 0.00 0.00 0.00 33 1018.4
20260508033542 55 221 0.0 0.9 0.00 0.00 0.00 33 1018.4
20260508033043 56 219 0.0 0.9 0.00 0.00 0.00 32 1018.4
20260508032539 56 228 0.0 6.1 0.00 0.00 0.00 32 1018.3
20260508032041 56 223 0.0 6.1 0.00 0.00 0.00 32 1018.0
20260508031539 56 225 0.0 5.2 0.00 0.00 0.00 32 1018.0
20260508031529 56 219 0.0 0.9 0.00 0.00 0.00 32 1018.0
20260508030802 56 224 0.0 0.9 0.00 0.00 0.00 31 1017.9
20260508030028 57 218 0.0 7.0 0.00 0.00 0.00 31 1017.8
20260508025518 57 211 0.9 7.0 0.00 0.00 0.00 31 1017.9
20260508025012 57 229 0.9 4.3 0.00 0.00 0.00 31 1017.7
20260508024506 57 223 0.9 7.0 0.00 0.00 0.00 30 1017.5
20260508023952 57 205 0.9 7.8 0.00 0.00 0.00 30 1017.4
20260508023914 58 205 0.0 3.5 0.00 0.00 0.00 29 1017.4
20260508023532 58 233 0.9 7.8 0.00 0.00 0.00 30 1017.5
20260508022431 58 257 0.9 9.6 0.00 0.00 0.00 28 1017.4
20260508021925 59 214 0.9 9.6 0.00 0.00 0.00 27 1017.4
20260508021638 60 267 0.9 7.0 0.00 0.00 0.00 27 1017.4
20260508020902 60 252 0.9 9.6 0.00 0.00 0.00 26 1017.4
20260508020356 60 214 0.9 9.6 0.00 0.00 0.00 26 1017.4
20260508015850 61 259 1.7 11.3 0.00 0.00 0.00 26 1017.4
20260508015340 61 242 1.7 11.3 0.00 0.00 0.00 25 1017.4
20260508014834 61 266 1.7 13.0 0.00 0.00 0.00 25 1017.5
20260508014327 61 286 4.3 13.9 0.00 0.00 0.00 25 1017.5
20260508013818 61 283 5.2 13.9 0.00 0.00 0.00 25 1017.7
20260508013311 61 281 2.6 13.9 0.00 0.00 0.00 25 1017.5
20260508012806 62 277 1.7 13.0 0.00 0.00 0.00 25 1017.4
20260508012522 61 249 3.5 13.0 0.00 0.00 0.00 25 1017.4
20260508011803 62 235 2.6 11.3 0.00 0.00 0.00 24 1017.4
20260508011303 62 209 0.9 10.4 0.00 0.00 0.00 24 1017.4
20260508010805 62 262 0.9 8.7 0.00 0.00 0.00 24 1017.4
20260508010303 62 237 0.9 8.7 0.00 0.00 0.00 25 1017.5
20260508005804 62 350 3.5 12.2 0.00 0.00 0.00 24 1017.8
20260508005305 62 268 6.1 14.8 0.00 0.00 0.00 24 1017.7
20260508004803 62 261 5.2 14.8 0.00 0.00 0.00 24 1017.7
20260508004303 62 281 5.2 16.5 0.00 0.00 0.00 24 1017.7
20260508004029 62 270 7.0 23.5 0.00 0.00 0.00 23 1017.7
20260508003304 62 247 8.7 23.5 0.00 0.00 0.00 23 1017.8
20260508002804 63 243 9.6 18.2 0.00 0.00 0.00 23 1017.8
20260508002250 63 282 8.7 20.9 0.00 0.00 0.00 22 1017.7
20260508001744 64 279 9.6 20.9 0.00 0.00 0.00 22 1017.8
20260508001238 64 254 10.4 21.7 0.00 0.00 0.00 22 1017.7
20260508000729 63 264 10.4 25.2 0.00 0.00 0.00 23 1017.8
20260508000222 63 268 10.4 25.2 0.00 0.00 0.00 22 1017.7
20260507235715 63 227 11.3 23.5 0.00 0.00 0.00 23 1017.8
20260507235203 63 240 10.4 23.5 0.00 0.00 0.00 25 1017.8
20260507234656 63 241 9.6 21.7 0.00 0.00 0.00 25 1017.8
20260507234150 64 242 9.6 17.4 0.00 0.00 0.00 24 1017.8
20260507233641 64 248 7.8 23.5 0.00 0.00 0.00 25 1017.7
20260507233133 63 191 7.0 23.5 0.00 0.00 0.00 26 1017.9
20260507232628 63 238 10.4 24.3 0.00 0.00 0.00 26 1017.8
20260507232114 63 240 9.6 24.3 0.00 0.00 0.00 24 1017.7
20260507231608 65 204 7.8 22.6 0.00 0.00 0.00 24 1017.7
20260507231102 65 234 7.8 20.0 0.00 0.00 0.00 25 1017.7
20260507230552 64 284 8.7 20.0 0.00 0.00 0.00 26 1017.7
20260507230045 64 224 9.6 20.0 0.00 0.00 0.00 25 1017.5
20260507225540 63 259 8.7 20.0 0.00 0.00 0.00 26 1017.7
20260507225026 63 234 7.0 18.2 0.00 0.00 0.00 26 1017.7
20260507224520 63 215 8.7 24.3 0.00 0.00 0.00 26 1017.9
20260507224014 63 236 11.3 24.3 0.00 0.00 0.00 25 1017.9
20260507223504 65 264 11.3 24.3 0.00 0.00 0.00 25 1017.9
20260507222958 64 258 12.2 24.3 0.00 0.00 0.00 25 1018.0
20260507222452 64 245 9.6 23.5 0.00 0.00 0.00 25 1017.8
20260507221938 64 234 7.0 23.5 0.00 0.00 0.00 25 1018.0
20260507221657 64 261 7.8 18.2 0.00 0.00 0.00 26 1017.8
20260507220934 62 246 10.4 21.7 0.00 0.00 0.00 26 1018.0
20260507220435 62 213 10.4 21.7 0.00 0.01 0.00 26 1018.0
20260507215934 63 221 9.6 19.1 0.00 0.01 0.00 25 1018.0
20260507215435 64 239 7.8 18.2 0.00 0.01 0.00 25 1017.9
20260507214934 64 253 5.2 18.2 0.00 0.01 0.00 25 1018.0
20260507214435 64 279 2.6 16.5 0.00 0.01 0.00 26 1018.3
20260507213934 63 269 3.5 18.2 0.00 0.01 0.00 26 1018.4
20260507213927 62 244 4.3 18.2 0.00 0.01 0.00 26 1018.5
20260507213154 63 269 6.1 22.6 0.00 0.01 0.00 26 1018.6
20260507212435 63 240 9.6 22.6 0.00 0.01 0.00 25 1018.6
20260507211934 64 220 7.8 20.9 0.00 0.01 0.00 25 1018.5
20260507211436 65 252 7.0 16.5 0.00 0.01 0.00 25 1018.6
20260507210937 64 222 7.8 15.6 0.00 0.01 0.00 26 1018.6
20260507210657 63 248 7.0 15.6 0.00 0.01 0.00 26 1018.8
20260507205935 63 244 5.2 17.4 0.00 0.01 0.00 26 1018.8
20260507205434 64 249 5.2 17.4 0.00 0.01 0.00 25 1019.0
20260507204935 64 306 4.3 14.8 0.00 0.01 0.00 25 1018.8
20260507204658 64 250 7.8 20.0 0.00 0.01 0.00 26 1018.9
20260507203936 64 250 9.6 20.0 0.00 0.01 0.00 25 1018.9
20260507203714 64 251 7.0 20.0 0.00 0.01 0.00 26 1018.9
20260507202935 64 235 4.3 17.4 0.00 0.01 0.00 25 1018.9
20260507202436 64 5 5.2 19.1 0.00 0.01 0.00 25 1019.0
20260507202158 63 244 7.0 19.1 0.00 0.01 0.00 27 1018.9
20260507201434 63 219 7.8 18.2 0.00 0.01 0.00 26 1019.0
20260507200936 62 235 8.7 20.0 0.00 0.01 0.00 27 1019.0
20260507200436 62 225 7.8 20.0 0.00 0.01 0.00 26 1019.1
20260507200157 63 227 7.8 24.3 0.00 0.01 0.00 26 1019.1
20260507195919 63 281 7.8 24.3 0.00 0.01 0.00 25 1019.1
20260507194934 64 272 5.2 15.6 0.00 0.01 0.00 25 1019.1
20260507194436 64 226 6.1 20.0 0.00 0.01 0.00 26 1019.3
20260507193936 63 228 9.6 20.0 0.00 0.01 0.00 25 1019.4
20260507193436 63 242 8.7 22.6 0.00 0.01 0.00 26 1019.3
20260507192935 63 229 7.0 22.6 0.00 0.01 0.00 27 1019.3
20260507192435 62 217 7.8 20.9 0.00 0.01 0.00 27 1019.4
20260507191935 62 236 8.7 20.9 0.00 0.01 0.00 27 1019.5
20260507191433 63 290 8.7 20.0 0.00 0.01 0.00 26 1019.5
20260507191154 62 264 7.8 20.0 0.00 0.01 0.00 26 1019.5
20260507190434 62 244 7.8 18.2 0.00 0.01 0.00 27 1019.5
20260507185924 62 248 6.1 18.2 0.00 0.01 0.00 27 1019.6
20260507185417 62 275 6.1 18.2 0.00 0.01 0.00 26 1019.8
20260507185133 62 261 6.1 18.2 0.00 0.01 0.00 28 1019.9
20260507184357 61 268 6.1 21.7 0.00 0.01 0.00 27 1019.9
20260507183853 60 281 9.6 22.6 0.00 0.01 0.00 28 1019.9
20260507183608 60 246 7.8 22.6 0.00 0.01 0.00 27 1020.0
20260507182835 61 247 6.1 20.0 0.00 0.01 0.00 27 1020.0
20260507182330 61 278 7.8 18.2 0.00 0.01 0.00 27 1020.1
20260507181823 60 273 8.7 20.0 0.00 0.01 0.00 28 1020.1
20260507181309 60 265 7.8 20.0 0.00 0.01 0.00 29 1020.1
20260507180803 60 266 5.2 20.0 0.00 0.01 0.00 27 1020.2
20260507180256 59 250 5.2 17.4 0.00 0.01 0.00 29 1020.2
20260507175747 58 236 6.1 17.4 0.00 0.01 0.00 28 1020.4
20260507175502 58 258 5.2 16.5 0.00 0.01 0.00 29 1020.4
20260507175001 58 219 7.8 21.7 0.00 0.01 0.00 28 1020.5
20260507174222 59 289 7.8 21.7 0.00 0.01 0.00 28 1020.5
20260507173715 59 219 7.0 19.1 0.00 0.01 0.00 29 1020.5
20260507173209 59 275 6.1 19.1 0.00 0.01 0.00 29 1020.5
20260507172659 59 298 5.2 16.5 0.00 0.01 0.00 29 1020.5
20260507172153 58 267 6.1 14.8 0.00 0.01 0.00 30 1020.6
20260507171647 58 242 7.0 13.9 0.00 0.01 0.00 30 1020.7
20260507171617 58 277 5.2 13.9 0.00 0.01 0.00 30 1020.6
20260507170627 58 218 5.2 15.6 0.00 0.01 0.00 29 1020.9
20260507170120 58 211 2.6 15.6 0.00 0.01 0.00 30 1020.9
20260507165612 58 273 0.0 7.0 0.00 0.01 0.00 31 1020.9
20260507165105 58 192 0.0 7.0 0.00 0.01 0.00 31 1020.9
20260507164558 57 193 0.0 2.6 0.00 0.01 0.00 32 1021.0
20260507164046 57 204 0.0 1.7 0.00 0.01 0.00 31 1021.1
20260507163758 57 246 0.0 0.9 0.00 0.01 0.00 32 1021.1
20260507163033 57 222 0.0 0.0 0.00 0.01 0.00 32 1021.2
20260507162523 56 220 0.0 0.0 0.00 0.01 0.00 33 1021.2